Presure
185 174 134 133 162 126 146 149 152 160 154 157 158 137 143 147 92 152 133 154 149 135 139 149 152 151 144 146 152 155 133 143 164 175 148 139 137 139 134 123 124 127 119 117 107
163 145 168 167 158 197 163 152 147 160 156 149 151 154 133 146 127 95 144 133 111 126 131 133 146 149 153 165 146 150 129 144 137 153 172 156 118 148 127 147 157 129 121 118 119
135 138 181 149 124 120 178 180 152 144 138 165 145 152 148 112 138 160 163 98 149 161 152 108 153 147 145 147 149 149 150 151 147 147 182 151 145 160 159 137 128 112 117 118 111
177 86 114 159 197 169 133 147 163 129 139 141 126 147 162 159 149 166 168 150 91 143 140 139 150 143 135 155 142 141 159 161 156 157 160 146 158 124 149 135 135 130 121 109 105
164 148 134 148 137 164 138 114 178 197 164 148 148 152 141 160 167 162 166 159 153 147 168 160 137 141 168 151 143 158 141 148 156 157 154 162 147 143 154 124 120 120 122 132 111
106 173 121 120 129 185 177 177 139 131 187 168 152 136 153 162 134 163 107 140 96 146 140 129 155 159 143 158 148 140 159 150 156 144 151 154 158 169 147 147 150 147 141 127 114
189 108 201 184 81 148 126 169 142 151 141 143 167 172 135 164 157 158 168 168 145 148 90 101 93 140 137 168 154 142 143 166 151 173 154 152 148 148 165 158 144 162 175 129 112
203 164 192 199 191 174 92 162 165 148 126 147 140 172 174 160 133 146 140 156 162 138 109 107 101 154 139 159 142 159 153 162 154 148 152 174 157 157 156 147 160 111 109 127 113
216 177 163 193 185 191 191 86 137 129 143 185 155 129 173 193 149 141 154 141 162 171 126 121 133 154 129 139 154 155 141 148 162 155 141 147 152 152 157 158 167 153 154 115 113
201 199 191 193 194 184 183 188 182 168 159 165 176 151 153 174 174 155 132 120 135 138 129 138 121 151 150 146 167 151 164 149 170 161 169 154 147 165 151 151 157 166 158 150 147
210 175 199 104 202 187 176 152 161 183 154 182 179 119 119 144 84 129 90 176 118 140 90 137 97 152 167 166 148 169 133 160 155 166 144 134 138 158 150 138 157 146 151 168 165
206 209 190 195 195 204 124 187 188 199 185 119 180 149 178 167 91 155 150 151 105 89 127 140 138 151 145 151 174 163 167 140 168 158 149 142 147 172 146 148 149 158 155 136 138
243 223 201 218 204 206 210 109 195 179 203 188 172 134 134 181 175 101 85 147 177 94 166 136 139 152 160 144 144 161 168 163 157 146 142 168 139 139 163 143 146 147 158 152 146
288 275 235 211 212 201 148 193 214 202 192 190 189 178 171 180 179 188 183 155 160 174 177 146 168 159 165 153 120 129 156 126 174 172 175 139 148 154 151 139 130 135 134 142 143
238 274 288 263 225 210 200 201 178 198 201 195 212 160 178 181 151 172 195 182 203 176 162 177 160 161 162 169 133 164 148 132 141 157 169 157 152 133 171 145 163 125 127 132 140
220 232 268 284 259 232 210 213 197 196 202 197 206 204 193 177 182 182 177 130 200 194 140 179 185 175 170 160 164 124 143 138 166 176 142 159 162 138 152 132 141 167 136 150 167
218 209 216 245 265 276 246 221 202 204 205 213 197 207 197 180 182 179 179 177 180 197 187 195 150 139 181 174 134 170 174 175 150 168 171 135 141 183 140 144 166 165 151 135 147
219 222 229 215 233 267 285 308 160 202 200 193 211 201 208 198 186 184 183 180 180 168 195 192 174 150 146 175 153 182 168 170 175 142 172 158 143 146 164 169 157 167 140 157 157
208 216 215 204 224 236 259 273 304 226 206 211 194 209 207 202 207 181 184 172 177 187 184 143 142 138 188 181 147 151 153 188 190 184 187 158 168 159 153 162 151 171 160 184 179
266 203 212 227 210 224 225 240 260 288 216 155 192 183 207 206 203 198 187 171 168 162 157 156 147 159 130 166 178 163 168 172 173 169 172 191 189 193 166 170 177 131 153 159 179
242 197 216 191 201 212 225 226 237 250 278 242 156 194 158 201 202 213 210 146 162 171 149 159 160 151 164 169 173 181 143 172 172 166 171 178 165 172 172 176 176 135 174 172 179
246 239 220 223 210 210 221 245 220 243 247 267 276 203 156 152 155 154 200 179 173 162 158 154 157 186 158 159 186 199 143 149 180 178 178 176 168 178 66 190 176 184 159 175 153
240 243 212 205 194 233 190 230 241 222 249 238 277 278 189 154 154 155 152 158 145 174 160 175 199 157 168 177 181 175 150 176 168 168 171 139 153 158 144 180 179 160 155 168 152
253 248 246 241 233 197 214 188 204 247 239 235 242 263 261 263 184 156 155 138 155 149 160 133 162 188 196 174 193 187 186 185 178 164 174 188 183 132 178 175 120 148 179 132 181
251 251 216 216 255 212 232 198 207 197 198 253 251 258 257 253 249 262 289 263 264 163 163 166 151 185 187 209 200 194 196 196 197 194 174 170 180 170 179 181 140 171 184 169 186
262 246 249 204 248 231 201 206 203 197 197 235 242 241 258 248 248 263 246 277 274 278 281 199 198 202 207 187 186 185 183 182 178 183 183 185 184 191 190 188 187 188 185 142 188
242 244 242 233 204 243 213 217 188 189 193 197 198 242 254 248 241 271 279 276 260 259 272 267 249 267 208 197 139 196 193 193 192 193 189 187 154 189 189 170 185 202 191 207 221
Wind_Speed
78 74 54 50 60 46 53 54 55 58 51 49 48 43 43 44 18 45 34 44 42 33 33 32 33 27 30 30 25 27 11 17 19 17 18 16 15 16 12 11 9 6 14 13 21
71 61 69 73 59 69 65 59 53 60 55 48 49 49 40 43 36 20 47 32 19 19 22 23 34 33 30 28 32 29 12 25 15 23 21 25 19 17 15 18 19 21 11 11 12
56 60 81 60 47 47 64 72 59 54 48 64 49 51 50 32 42 48 46 18 49 45 49 16 37 40 33 33 32 34 33 30 31 27 22 25 22 24 22 17 12 23 16 12 18
84 32 48 68 88 75 53 56 70 48 49 49 42 51 57 54 49 51 50 42 15 45 39 39 39 41 24 42 33 29 34 34 35 32 28 27 24 18 26 20 19 15 15 23 26
78 67 60 66 59 72 60 47 72 75 66 55 54 55 50 57 60 54 54 50 44 41 51 51 36 40 41 34 35 35 29 32 35 36 33 30 30 27 30 20 20 19 18 22 25
55 84 60 55 59 83 81 78 61 53 77 73 60 52 58 63 45 57 30 44 25 44 40 35 52 47 43 46 33 33 42 34 39 28 34 33 30 28 34 31 31 32 28 28 26
94 59 95 90 34 70 58 76 64 66 59 59 71 73 55 67 59 57 62 59 47 49 19 23 20 44 35 45 49 38 36 41 39 41 38 35 30 29 35 37 33 31 33 29 29
100 82 93 95 93 85 41 74 72 67 55 64 60 74 80 67 52 56 50 55 57 46 30 29 26 47 40 47 39 48 47 44 45 32 38 34 38 34 34 35 37 32 31 31 32
103 89 83 94 92 94 92 40 65 60 66 81 68 56 74 80 63 53 59 49 59 64 41 37 42 52 41 40 49 51 39 45 45 45 29 33 39 37 36 39 43 36 37 35 36
102 100 96 94 96 93 88 88 86 80 74 74 78 69 69 75 75 64 50 44 48 47 44 45 42 51 51 46 54 49 54 48 49 50 50 45 36 46 36 37 41 42 42 39 38
107 90 101 58 99 94 88 73 79 86 75 84 82 55 55 67 23 54 31 73 47 52 26 45 39 56 59 56 49 56 33 54 52 54 38 28 35 47 39 36 45 33 41 48 49
108 106 95 99 97 100 69 93 95 93 87 57 85 72 86 79 38 69 64 64 43 29 45 50 55 54 46 51 59 56 58 38 55 53 44 39 44 51 40 42 46 47 46 39 42
114 112 104 106 101 99 101 57 95 85 91 90 81 60 64 83 80 48 28 62 81 41 70 57 58 54 57 51 48 57 61 59 55 47 44 57 41 39 53 41 48 44 50 50 47
90 107 112 106 103 101 87 99 97 95 90 93 91 87 82 86 81 85 83 72 72 79 79 58 71 64 63 61 44 46 55 42 63 62 63 45 55 57 53 42 47 47 45 48 50
99 95 91 110 110 104 109 100 88 92 91 94 89 76 85 88 76 76 86 78 88 81 65 80 67 64 62 69 51 64 54 45 50 56 61 59 60 41 62 53 61 51 50 51 54
96 99 94 88 102 111 110 102 98 93 89 92 90 93 92 86 87 82 75 58 88 84 57 79 84 78 77 67 66 50 55 52 63 69 57 60 63 55 55 50 56 64 55 60 68
91 92 90 94 92 89 111 105 101 91 93 93 93 93 94 89 89 81 78 76 75 85 83 89 60 59 82 76 57 75 75 73 59 65 73 52 56 80 52 53 64 65 62 58 62
97 99 97 91 101 91 82 77 78 94 96 90 95 94 95 94 92 88 80 78 78 73 88 84 80 68 61 78 68 82 69 73 75 61 72 69 61 63 67 70 64 71 61 71 71
95 95 92 91 94 94 87 76 64 77 102 100 93 96 96 96 97 87 86 74 76 83 80 64 61 57 87 82 61 65 67 82 81 79 81 71 76 73 71 72 63 74 77 76 78
103 88 93 102 88 89 82 81 72 65 74 77 90 88 97 95 95 91 88 73 71 71 71 69 66 69 59 72 80 73 73 75 74 72 71 88 85 86 78 76 76 61 77 76 80
106 89 106 88 84 80 79 78 83 78 65 68 81 94 78 96 95 95 95 66 72 76 70 71 72 71 72 74 76 81 62 75 74 73 75 80 78 82 81 79 76 61 79 81 82
108 107 98 98 85 76 78 74 86 78 74 62 61 74 79 73 73 73 91 79 74 73 72 71 70 87 71 70 85 90 68 69 81 80 79 83 84 88 14 84 75 84 83 85 81
110 117 99 87 79 86 69 75 77 81 68 74 58 56 71 80 78 76 75 74 74 77 74 79 91 74 74 83 85 83 72 80 75 76 84 64 81 76 63 83 82 82 85 87 83
117 112 108 98 94 72 81 81 75 69 73 72 66 57 56 56 74 81 77 74 73 74 74 67 74 86 92 80 89 90 91 91 87 79 87 94 92 66 86 83 52 80 92 68 94
113 108 82 87 90 83 81 82 81 73 66 65 60 53 52 56 59 61 56 67 68 80 77 78 74 85 86 91 91 92 93 93 93 95 87 86 91 88 88 90 74 89 94 89 100
112 101 99 84 92 87 85 80 79 71 67 65 59 59 50 55 57 57 68 57 60 61 60 88 90 90 90 89 89 88 89 91 92 95 94 97 98 99 98 97 98 99 98 85 100
101 103 99 91 85 84 80 80 79 74 68 68 68 58 50 52 57 46 48 58 64 65 63 64 63 64 92 90 72 89 93 95 96 96 96 97 85 101 101 94 100 97 102 99 89
Wind_Direction
233 240 239 236 232 235 237 236 237 235 235 235 235 240 237 234 222 232 241 230 239 268 267 245 244 255 261 262 259 260 249 256 275 304 264 265 270 271 257 222 218 276 233 231 259
242 235 239 236 235 238 229 236 237 235 235 233 235 236 241 239 232 228 243 255 243 252 266 275 257 256 258 256 264 266 246 270 269 275 296 279 223 275 243 270 266 258 247 254 284
233 236 235 233 233 233 237 229 237 238 237 238 236 238 239 228 243 237 237 230 242 237 240 260 250 257 265 264 262 268 267 264 274 273 297 275 282 281 285 261 243 247 242 255 256
238 226 238 237 230 234 236 235 236 237 238 237 238 240 241 244 241 242 240 236 239 244 256 259 251 265 273 256 271 271 258 257 267 267 268 268 273 247 281 270 266 245 247 251 266
232 232 233 235 234 234 237 226 230 232 236 239 240 240 242 244 244 244 242 238 242 245 244 244 261 264 249 257 272 260 270 272 268 269 271 273 273 272 278 247 249 247 250 273 257
239 235 232 232 234 235 234 234 237 237 231 236 240 240 243 244 239 244 239 240 243 246 245 246 245 244 264 248 262 270 264 266 266 272 275 277 276 278 281 279 280 285 278 271 263
234 238 232 235 233 237 235 235 237 236 239 239 240 233 241 242 243 243 245 243 246 246 255 254 264 251 264 249 255 272 273 256 271 265 275 275 277 278 283 285 282 291 297 271 266
232 234 231 232 234 236 232 234 234 236 234 237 238 238 236 239 243 243 245 247 245 246 252 258 262 250 263 251 264 256 261 261 269 272 269 273 279 278 280 281 287 260 278 275 266
231 232 229 231 232 233 233 231 238 235 235 237 237 237 238 236 240 243 244 245 247 246 251 253 258 250 258 262 258 257 271 270 262 271 270 276 279 281 279 283 285 284 286 262 264
235 233 233 231 231 233 232 234 235 235 235 234 235 238 239 237 239 239 241 243 247 244 254 254 261 253 255 259 253 261 257 270 264 265 267 274 280 276 281 282 285 287 287 286 288
234 235 233 226 231 234 234 238 238 236 235 237 235 234 236 240 234 239 247 241 239 249 271 250 266 251 250 253 262 254 260 260 266 263 276 261 269 278 281 272 283 275 286 289 292
234 234 234 234 233 232 234 234 233 234 235 234 236 233 238 239 252 241 244 245 250 262 254 250 252 254 256 258 256 255 258 268 260 267 267 276 276 270 279 283 285 287 289 275 281
232 233 234 234 233 232 231 236 233 235 233 234 237 234 236 240 240 248 243 244 241 258 248 250 253 252 253 255 258 259 257 262 263 266 268 268 269 274 276 279 282 286 289 288 289
232 232 233 233 234 233 235 233 232 232 232 235 234 238 238 240 240 240 242 246 247 244 245 250 251 253 252 255 260 259 261 258 263 266 268 272 278 276 280 272 271 277 277 285 284
232 232 232 232 233 233 233 232 232 233 231 234 233 236 237 239 241 238 242 241 241 244 250 245 253 256 256 256 257 259 261 263 265 268 269 269 271 265 273 273 278 275 277 279 284
232 233 232 232 232 233 234 233 234 234 233 235 234 233 234 239 240 239 239 242 242 243 246 246 246 249 254 256 258 263 262 262 263 267 267 267 269 272 273 275 279 282 282 288 286
229 228 233 232 231 233 232 232 233 233 233 233 234 233 233 237 240 240 240 241 242 245 244 243 251 257 251 256 252 259 262 262 263 265 265 270 272 273 272 274 278 280 281 279 285
230 229 232 233 232 233 235 237 227 234 234 232 233 235 234 233 238 240 240 241 243 242 245 244 246 253 254 253 257 256 263 264 263 267 266 269 271 275 277 277 279 281 278 283 285
225 228 230 229 233 234 234 234 241 233 234 232 233 234 234 234 234 241 240 239 240 245 246 248 250 251 250 254 259 261 263 259 261 262 263 270 271 273 277 278 281 279 281 283 281
224 221 226 231 231 234 233 233 234 240 231 229 232 235 237 236 236 236 240 241 240 240 244 247 251 253 257 255 255 260 263 265 266 268 268 269 271 273 274 276 276 275 284 283 284
223 220 226 224 223 229 231 231 233 234 241 236 230 234 236 237 238 238 238 239 238 243 243 245 249 251 254 255 256 258 262 263 265 267 269 270 272 272 271 275 278 274 279 281 283
221 225 224 227 226 226 228 230 236 234 234 241 238 232 233 232 232 232 240 239 240 241 243 244 249 252 254 256 258 257 264 264 264 267 270 271 269 272 288 277 277 281 280 282 284
217 222 221 221 224 228 219 230 235 236 236 236 239 237 232 233 234 235 235 238 238 243 244 246 248 250 256 255 257 260 263 265 266 267 268 274 272 276 278 278 277 275 278 280 284
216 220 221 223 224 214 225 225 229 234 237 235 237 237 237 240 236 236 235 237 240 242 247 251 249 250 251 254 255 258 260 261 263 266 268 268 270 275 276 278 280 278 280 283 283
216 220 222 224 226 224 226 230 232 228 230 237 237 238 238 237 237 240 237 240 242 246 249 250 253 251 252 251 253 256 258 260 262 263 268 269 272 275 275 276 281 279 280 282 283
212 216 220 222 222 221 221 227 232 229 229 238 238 236 233 234 237 238 241 239 241 244 241 247 249 250 251 254 255 256 259 260 263 264 267 269 271 273 274 275 276 278 280 286 284
211 213 216 219 222 221 222 226 222 222 226 232 233 238 234 234 235 237 237 234 241 244 244 243 246 246 252 255 257 258 259 260 263 265 267 269 277 273 273 276 277 276 280 281 280